Torna al catalogo

STARLINK-32376

AttivoComunicazioniVLEO
NORAD 61707·PAYLOAD·🇺🇸 United States

Lanciato Oct 30, 2024 da Cape Canaveral Space Force Station

Loading…

Prossimi Passaggi (prossime 24 ore)

TLE

AggiornatoSource: CelesTrak SupGP

Epoca: Sep 14, 2026, 21:22 UTC

1 61707C 24196A   26257.89076389  .00016316  00000+0  48227-3 0  2574
2 61707  53.1572 299.6311 0001150  91.0782 316.1985 15.34368757    14

Traccia STARLINK-32376 in tempo reale con AllMySat

Download on the App Store